sat.trackr.live / text

‹ back to catalog

STARLINK-6134

NORAD 57110 · 2023-090K

PAYLOAD ACTIVE UNKNOWN

§ Identity

Operator
Country
US
Launch date
2023-06-23
Launch site
AFETR
Launch vehicle
Mass (kg)
RCS (m²)

Purposes: comms

External: N2YO · Heavens-Above · Gunter

§ Orbital elements

Epoch: 2026-05-25T04:32:17.452032Z

Period
94.32 min
Inclination
43.0017°
Eccentricity
0.0001589
Mean motion
15.26744167 rev/d
Perigee alt
484.5 km
Apogee alt
486.6 km
Semi-major
6,863.7 km
B*
4.6118e-5
RAAN
209.3870°
Arg perigee
272.2598°
Mean anomaly
87.8072°
Rev number
16,203

§ Raw data

STARLINK-61341 57110U 23090K   26145.18909088  .00000978  00000+0  46118-4 0  99962 57110  43.0017 209.3870 0001589 272.2598  87.8072 15.26744167162035

JSON: /api/v1/satellites/57110 · /tle

For live sub-satellite position, see the globe view (requires WebGL).

§ Visibility from observer

Set your observer location to see the next 7 days of passes ≥ 10°. The values pass through the URL so the page stays shareable.

No JS? Fill the form by hand. The geolocation button needs JavaScript.